Billings, MT

6:27 AM MDT on May 27, 2017 (GMT -0600)
Billings Logan International

Weather History for KBIL - September, 2013

Change the Weather History Date:

Thursday, September 12, 2013

  Actual Average Record
Temperature  
Mean Temperature 70 °F 62 °F  
Max Temperature 83 °F 75 °F 93 °F (1981)
Min Temperature 56 °F 49 °F 30 °F (1970)
Degree Days  
Heating Degree Days 0 5  
Month to date heating degree days 0 43  
Since 1 July heating degree days 0 80  
Cooling Degree Days 5 2  
Month to date cooling degree days 93 33  
Year to date cooling degree days 830 615  
Growing Degree Days 18 (Base 50)    
Moisture  
Dew Point 47 °F    
Average Humidity 49    
Maximum Humidity 66    
Minimum Humidity 31    
Precipitation  
Precipitation 0.00 in 0.04 in 1.06 in (1993)
Month to date precipitation 1.51 0.48  
Year to date precipitation 9.69 10.53  
Snow  
Snow 0.00 in 0.00 in 0.40 in (1970)
Month to date snowfall T 0.2  
Since 1 July snowfall T 0.2  
Since 1 September snowfall T 0.2  
Snow Depth 0.00 in    
Sea Level Pressure  
Sea Level Pressure 30.15 in    
Wind  
Wind Speed 6 mph (NNW)    
Max Wind Speed 20 mph    
Max Gust Speed 24 mph    
Visibility 10 miles    
Events      
T = Trace of Precipitation, MM = Missing Value Source: NWS Daily Summary

Daily Weather History Graph

Daily Weather History Graph

Search for Another Location

Airport or City:

Trip Planner

Search our weather history database for the weather conditions in past years. The results will help you decide how hot, cold, wet, or windy it might be!

Date:

Astronomy

Sep. 12, 2013 Rise Set
Actual Time 6:49 AM MDT 7:30 PM MDT
Civil Twilight 6:19 AM MDT 8:00 PM MDT
Nautical Twilight 5:43 AM MDT 8:36 PM MDT
Astronomical Twilight 5:05 AM MDT 9:13 PM MDT
Moon 2:40 PM MDT (9/12) No Moon Set
Length of Visible Light 13h 41m
Length of Day
12h 41m
Waxing Crescent, 51% of the Moon is Illuminated
Sep 12
Waxing Crescent
Sep 19
Full
Sep 26
Last Quarter
Oct 4
New
Oct 11
First Quarter

Hourly Weather History & Observations

Time (MDT) Temp. Dew Point Humidity Pressure Visibility Wind Dir Wind Speed Gust Speed Precip Events Conditions
12:53 AM 62.1 °F 46.9 °F 58% 30.25 in 10.0 mi NNE 5.8 mph - N/A   Clear
1:53 AM 61.0 °F 46.0 °F 58% 30.23 in 10.0 mi NNE 9.2 mph - N/A   Clear
2:53 AM 60.1 °F 45.0 °F 57% 30.22 in 10.0 mi North 10.4 mph - N/A   Clear
3:53 AM 59.0 °F 44.1 °F 58% 30.22 in 10.0 mi NNE 9.2 mph - N/A   Clear
4:53 AM 59.0 °F 44.1 °F 58% 30.22 in 10.0 mi North 6.9 mph - N/A   Clear
5:53 AM 57.9 °F 44.1 °F 60% 30.22 in 10.0 mi NNW 8.1 mph - N/A   Clear
6:53 AM 55.9 °F 44.1 °F 64% 30.24 in 10.0 mi North 5.8 mph - N/A   Partly Cloudy
7:53 AM 59.0 °F 45.0 °F 60% 30.25 in 10.0 mi North 4.6 mph - N/A   Partly Cloudy
8:53 AM 61.0 °F 45.0 °F 56% 30.24 in 10.0 mi NE 5.8 mph - N/A   Clear
9:53 AM 63.0 °F 46.0 °F 54% 30.25 in 10.0 mi Calm Calm - N/A   Partly Cloudy
10:53 AM 66.0 °F 46.0 °F 48% 30.23 in 10.0 mi Calm Calm - N/A   Partly Cloudy
11:53 AM 71.1 °F 48.0 °F 44% 30.21 in 10.0 mi Calm Calm - N/A   Partly Cloudy
12:53 PM 73.9 °F 48.9 °F 41% 30.18 in 10.0 mi Variable 3.5 mph - N/A   Partly Cloudy
1:53 PM 79.0 °F 50.0 °F 36% 30.14 in 10.0 mi East 4.6 mph - N/A   Partly Cloudy
2:53 PM 81.0 °F 48.9 °F 33% 30.11 in 10.0 mi NE 11.5 mph - N/A   Partly Cloudy
3:53 PM 82.9 °F 48.0 °F 29% 30.08 in 10.0 mi SSE 6.9 mph - N/A   Scattered Clouds
4:53 PM 81.0 °F 48.0 °F 31% 30.06 in 10.0 mi South 8.1 mph - N/A   Scattered Clouds
5:53 PM 79.0 °F 46.9 °F 32% 30.06 in 10.0 mi WSW 15.0 mph - N/A   Mostly Cloudy
6:53 PM 73.0 °F 48.9 °F 42% 30.07 in 10.0 mi WSW 12.7 mph - N/A   Scattered Clouds
7:53 PM 73.0 °F 48.9 °F 42% 30.06 in 10.0 mi WSW 10.4 mph - N/A   Scattered Clouds
8:53 PM 72.0 °F 50.0 °F 46% 30.06 in 10.0 mi WSW 9.2 mph - N/A   Partly Cloudy
9:53 PM 71.1 °F 50.0 °F 47% 30.05 in 10.0 mi SW 6.9 mph - N/A   Clear
10:53 PM 71.1 °F 48.9 °F 45% 30.02 in 10.0 mi WSW 5.8 mph - N/A   Scattered Clouds
11:53 PM 69.1 °F 48.9 °F 49% 30.00 in 10.0 mi Calm Calm - N/A   Partly Cloudy